Regional Weather Roundup
Issued by NWS Wakefield, VA

Home | Current Version | Previous Version | Text Only | Print | Product List | Glossary Off
Versions: 1 2 3 4 5 6 7 8 9 10 11 12 13 14 15 16 17 18 19 20 21 22 23 24 25 26 27

000
ASUS41 KAKQ 310510
RWRAKQ

REGIONAL WEATHER ROUNDUP
NATIONAL WEATHER SERVICE WAKEFIELD VA
100 AM EDT FRI OCT 31 2014

Note: "fair" indicates few or no clouds below 12,000 feet with no
significant weather and/or obstructions to visibility. * = Denotes
station may not report precipitation (e.g., rain,snow,etc.),
thunder or fog.

VAZ042-051-052>054-056-310600-
NORTHERN VIRGINIA

CITY           SKY/WX    TMP DP  RH WIND       PRES   REMARKS
WASH NATIONAL  PTCLDY    49  36  61 NW6       30.04F
DULLES         PTCLDY    36  34  92 CALM      30.04F
FORT BELVOIR   CLEAR     41  38  89 NW1       30.04F
QUANTICO       CLEAR     43  37  79 NW3       30.05S
FREDERICKSBRG* CLEAR     40  39  95 CALM      30.03F
STAFFORD*      CLEAR     37  37 100 CALM      30.08S
WARRENTON      CLEAR     33  33 100 CALM      30.03S
CULPEPER*      CLEAR     37  36  93 CALM      30.04S
MANASSAS*      CLEAR     37  37 100 CALM      30.04F
LEESBURG*      MOCLDY    43  41  93 W3        30.04S
WINCHESTER     MOCLDY    45  32  61 CALM      30.03S
FRONT ROYAL*   CLEAR     37  36  93 CALM      30.03S
LURAY*         CLEAR     37  37 100 CALM      30.04S
$$

VAZ048-049-060>072-079>083-310600-
CENTRAL AND SOUTH CENTRAL VIRGINIA...AND NORTH CENTRAL NORTH CAROLINA

CITY           SKY/WX    TMP DP  RH WIND       PRES   REMARKS
RICHMOND       PTCLDY    45  37  73 N6        30.02F
CHESTERFIELD*  CLEAR     41  27  56 N6        30.03F
PETERSBURG*    CLEAR     37  36  96 CALM      30.03S
HANOVER        CLEAR     41  37  86 CALM      30.04F
TAPPAHANNOCK*  CLOUDY    43  38  84 CALM      30.04S
CHARLOTTSVILLE CLEAR     39  35  86 CALM      30.04S
ORANGE*        CLEAR     37  36  93 CALM      30.05S
LOUISA*        CLEAR     36  34  93 CALM      30.02F
FARMVILLE*     CLEAR     39  39 100 CALM      30.02S
CREWE*         CLEAR     42  37  83 CALM      30.02F
FORT PICKETT*  NOT AVBL
LUNENBURG*     CLEAR     45  38  78 N3        30.02S
SOUTH HILL*    CLEAR     46  41  81 N3        30.07S
LAWRENCEVILLE* CLEAR     45  40  84 CALM      30.01S
ROANOKE RAPIDS CLEAR     43  43 100 CALM      30.01S FOG
RALEIGH        CLEAR     48  42  80 NE6       30.00S
$$

VAZ088>098-310600-
SOUTHEAST VIRGINIA

CITY           SKY/WX    TMP DP  RH WIND       PRES   REMARKS
NORFOLK        CLEAR     54  42  64 NE7       29.99F
VIRGINIA BEACH CLEAR     50  40  68 N5        29.98F
NORFOLK NAVAL  CLEAR     56  41  57 NE10      30.01F
WEST POINT*    CLEAR     42  37  83 CALM      30.04S
NEWPORT NEWS   CLEAR     50  44  80 N8        30.00F
LANGLEY AFB    PTCLDY    45  45 100 N2        30.00F
FORT EUSTIS    CLEAR     49  49  99 N5        29.99F
WILLIAMSBURG*  CLEAR     46  45  93 N5        30.02S
HR EXEC AP*    CLEAR     37  34  87 CALM      30.02F
FRANKLIN*      CLEAR     41 N/A N/A CALM      30.00F
WAKEFIELD      CLEAR     43  40  89 CALM      30.01F
$$

VAZ020-022-025-037-045-310600-
WEST CENTRAL AND SOUTHWEST VIRGINIA

CITY           SKY/WX    TMP DP  RH WIND       PRES   REMARKS
STAUNTON*      CLEAR     31  28  90 CALM      30.06S
HOT SPRINGS VA CLEAR     34  29  82 CALM      29.97S
LYNCHBURG      CLEAR     37  35  92 N3        30.04F
DANVILLE       CLEAR     44  37  76 NE6       30.03S
SOUTH BOSTON*  NOT AVBL
MARTINSVILLE   CLEAR     39  39  98 N3        30.05S
ROANOKE        PTCLDY    42  34  73 CALM      30.05F
BLACKSBURG     CLOUDY    39  37  93 CALM      30.04S
DUBLIN*        MOCLDY    39  36  87 CALM      30.03F
MARION*        CLEAR     35  33  92 CALM      30.04S
HILLSVILLE*    CLEAR     39  33  81 N5        30.00F
RICHLANDS*     CLEAR     41  35  77 CALM      30.01S
WISE*          CLEAR     37  32  81 CALM      30.01F
ABINGDON*      CLEAR     40  37  87 E3        30.00F
$$

MDZ021>025-VAZ099-100-310600-
SOUTHERN MARYLAND AND THE DELMARVA PENINSULA

CITY           SKY/WX    TMP DP  RH WIND       PRES   REMARKS
PATUXENT RIVER CLEAR     46  39  76 CALM      30.03S
BAY BRIDGE APT   N/A     50  36  57 N3        30.03S
LEONARDTOWN    CLEAR     39  36  87 CALM      30.04S
DOVER          PTCLDY    42  39  89 N3        30.01S
GEORGETOWN     CLEAR     46  38  73 N3        30.03F
EASTON         CLEAR     45  42  86 CALM      30.06S
CAMBRIDGE      CLEAR     45  37  76 CALM      30.02S
SALISBURY      CLEAR     47  38  71 N5        30.02S
OCEAN CITY     CLEAR     44  39  82 NW6       30.01F
WALLOPS ISLAND CLEAR     47  39  74 N6        30.02S
ACCOMACK*      CLEAR     43  39  87 N3        30.01F
$$

NCZ012>017-030>032-310600-
EASTERN NORTH CAROLINA

CITY           SKY/WX    TMP DP  RH WIND       PRES   REMARKS
ELIZABETH CITY CLEAR     55  45  68 N9        29.98F
AHOSKIE*       NOT AVBL
EDENTON*       CLEAR     48  44  85 N3        29.99S
CURRITUCK*     CLEAR     51  43  74 CALM      29.99F
KILL DEVIL HLS PTCLDY    60  46  61 NE8       29.95F
MANTEO         CLEAR     58  45  62 NE7       29.97F
CAPE HATTERAS  CLOUDY    61  50  67 NE13G20   29.93F
TARBORO*       CLEAR     43  42  95 CALM      30.01S
GOLDSBORO      CLEAR     51  50  97 E2        29.96F
WASHINGTON     CLEAR     48  45  88 NE3       29.98F
GREENVILLE     CLEAR     46  45  93 N3        30.00F
NEW BERN       CLEAR     53  49  86 NE7       29.97F
WILMINGTON     PTCLDY    54  51  90 NE7       29.94F
$$

VAZ048-310600-
ELSEWHERE

CITY           SKY/WX    TMP DP  RH WIND       PRES   REMARKS
HARRISBURG PA  CLOUDY    48  39  71 CALM      30.03S
BALTIMORE      MOCLDY    47  41  80 CALM      30.02F
ANNAPOLIS      CLOUDY    53  41  63 N6        30.02F
ANDREWS AFB    CLEAR     43  36  77 N2        30.02F
WILMINGTON DE  CLEAR     41  38  89 N3        30.04F
PHILADELPHIA   CLEAR     46  34  62 NW6       30.04S
WILDWOOD NJ*   CLEAR     43  34  70 N6        30.04S
ATLANTIC CITY  CLEAR     40  35  83 NW3       30.03S
HENDERSON NC   CLEAR     46  41  84 N3        30.01F
GREENSBORO     PTCLDY    46  39  76 NE7       29.99F
ROCKY MOUNT    CLEAR     46  44  93 CALM      29.99F
FAYETTEVILLE   CLEAR     49  46  90 N5        29.96F
CHARLOTTE      CLEAR     53  34  48 E3        29.97F
$$

VAZ100-310600-
MARINE

STATION/POSITION TIME  TEMP    WIND        PRES    WAVE   SWELL
                       AIR SEA DIR/SP/G            HT/PER HT/PER
                 (UTC) (F)     (DEG/KT/KT) (MB)    (FT/S) (FT/S)
44066 TX TWR #4  0500   56 64  350/ 12/ 14 1015.0S   2/ 4   2/ 6
CAPE MAY NJ      0500   47 64   50/  3/  7 1016.3S
LEWES DE         0500   53 60   60/ 15/ 17 1016.5R
15NM E FENWICK I 0500   57 65              1015.5F   2/ 4
OCEAN-CITY-INLET 0500   51 62  350/  6/  7 1015.9S
WACHAPREAGUE VA  0500   48 63  350/  4/  6 1016.2F
THOMAS POINT MD  0500   53 61  350/  8/  8 1017.7F
GOOSES REEF MD   0500   56      30/  8/ 10 1017.1S
COVE POINT MD    0500   54      60/ 11/ 13 1016.5F
SOLOMONS ISLAND  0500      62                N/A
BISHOPS HEAD MD  0500   51 60  360/  4/  6 1016.1S
PINEY POINT MD   0500           30/  5/  6   N/A
POTOMAC MD       0500   56      40/ 10/ 12 1016.0S
CAMBRIDGE MD     0500   53 60   10/  6/  8 1016.4R
LEWISETTA VA     0500   54 62   10/  4/  6 1016.3F
RAPPAHANNOCK LGT 0500           30/ 12/ 13 1016.7S
STINGRAY PT      0500   57      40/ 12/ 16 1016.8S
YORK RVR RNG VA  0500   58      40/ 13/ 16 1015.5F
YORKTOWN VA      0500   52 63  360/ 10/ 10 1015.8F
JAMESTOWN VA     0500   49      30/  4/  6   N/A
DOMINION TERM VA 0500   54      30/  4/  5 1015.9F
KIPTOPEKE VA     0500      67   30/  5/  7   N/A
CHES BAY BRIDGE  0500   58 63   30/ 12/ 13 1015.1F
CHESAPEAKE LGHT  0400   59      20/ 12/ 14 1016.3F
WILLOUBY STN VA  0500   58      50/ 11/ 13 1014.4F
S CRANEY ISL VA  0500           30/  9/ 11 1015.4F
CAPE HENRY BUOY  0500      65                N/A     3/ 5
1ST LANDING BUOY 0500   58      40/ 12/ 14 1015.4F
CAPE CHARLES BUO 0500      65                N/A     2/ 5   2/ 9
64NM E OF VA BCH 0500   60 66   30/ 12/ 14 1014.5F   2/ 7   2/ 7
DUCK PIER NC     0500   61 66   30/ 15/ 17 1014.1S
44100 DUCK FRF   0500      67                N/A     3/ 5
OREGON INLET NC  0500   61 68   30/ 12/ 15 1014.4S
HATTERAS NC      0500   62 67   30/ 14/ 21 1013.9F
DIAMOND SHLS NC  0500   65      10/ 19/ 25 1012.4F   5/ 8   2/ 8
CAPE LOOKOUT NC  0400   61      20/ 11/ 14 1013.6F
$$



USA.gov is the U.S. government's official web portal to all federal, state and local government web resources and services.